Location: Bishop's University Astronomical Observatory
(45.3661°N, 71.8475°W)
Time: 16:01:41
(UTC-05:00)

CZ-4C R/B - Visible Passes

Search period start: 18 December 2014 00:00
Search period end: 28 December 2014 00:00
Orbit: 782 x 1221 km, 63.4° (Epoch: 16 December)

Date Brightness Start Highest point End Pass type
(mag) Time Alt. Az. Time Alt. Az. Time Alt. Az.
18 Dec 5.4 06:36:21 10° SE 06:39:23 15° ESE 06:42:32 10° ENE visible
18 Dec 4.6 17:30:25 10° NW 17:36:37 34° WSW 17:43:12 10° S visible
19 Dec 5.7 18:05:31 10° WNW 18:09:42 17° WSW 18:14:03 10° SW visible
20 Dec 5.7 05:56:28 10° SE 05:58:20 12° ESE 06:00:15 10° E visible
20 Dec 4.4 16:48:59 10° NW 16:55:26 40° WSW 17:02:20 10° S visible
21 Dec 4.6 06:26:35 10° S 06:31:12 28° ESE 06:36:10 10° NE visible
21 Dec 5.6 17:23:41 10° WNW 17:28:36 20° WSW 17:33:45 10° SSW visible
23 Dec 4.8 05:45:52 10° SSE 05:50:06 23° ESE 05:54:36 10° ENE visible
23 Dec 5.5 16:42:01 10° WNW 16:47:29 24° WSW 16:53:14 10° SSW visible
24 Dec 3.2 06:17:55 10° SSW 06:23:12 52° ESE 06:29:01 10° NE visible
24 Dec 6.2 17:19:03 10° W 17:20:25 11° WSW 17:21:48 10° WSW visible
25 Dec 4.9 05:05:19 10° SSE 05:09:01 19° ESE 05:12:55 10° ENE visible
25 Dec 2.3 06:51:09 10° SW 06:56:41 77° NW 07:02:51 10° NE visible
26 Dec 3.5 05:36:55 10° S 05:42:02 42° ESE 05:47:37 10° NE visible
26 Dec 5.9 16:36:07 10° WNW 16:39:22 14° WSW 16:42:42 10° SW visible
27 Dec 5.0 04:24:59 10° SE 04:27:57 15° ESE 04:31:02 10° ENE visible
27 Dec 2.3 06:09:53 10° SW 06:15:25 89° SE 06:21:33 10° NE visible
